FLOCK 3P-24

Last updated on Wed Feb 14 2018 16:20:18 GMT+0000 (Coordinated Universal Time)

1 41956U 17008J 18044.91429465 .00002788 00000-0 11703-3 0 9998 2 41956 97.4647 110.3930 0010285 67.2661 292.9662 15.24274711 55331
UTC large
Height (km)
Speed (km/s)
/
Latitude / Longitude
Inclination (degrees)
Orbital Period (minutes)
Azimuth
Elevation
Range (km)
Doppler Factor

Next 0 passes for location: London (51.5072 / 0.1276)

Sorry there are no passes over London.